Time,TemperatureF,DewpointF,PressureIn,WindDirection,WindDirectionDegrees,WindSpeedMPH,WindSpeedGustMPH,Humidity,HourlyPrecipIn,Conditions,Clouds,dailyrainin,SoftwareType,DateUTC
2013-10-09 00:01:00,53.2,48.2,30.17,SE,142,2.0,3.0,83,0.00,,,0.01,meteohub,2013-10-09 05:01:00,
2013-10-09 00:06:00,53.4,48.4,30.17,SE,142,1.0,4.0,83,0.00,,,0.00,meteohub,2013-10-09 05:06:00,
2013-10-09 00:11:00,53.4,48.0,30.17,SE,144,0.0,6.0,82,0.00,,,0.00,meteohub,2013-10-09 05:11:00,
2013-10-09 00:16:00,53.4,48.0,30.17,SSE,152,2.0,6.0,82,0.00,,,0.00,meteohub,2013-10-09 05:16:00,
2013-10-09 00:21:00,53.4,48.0,30.17,SE,133,1.0,6.0,82,0.00,,,0.00,meteohub,2013-10-09 05:21:00,
2013-10-09 00:26:00,53.4,47.7,30.17,SE,134,1.0,5.0,81,0.00,,,0.00,meteohub,2013-10-09 05:26:00,
2013-10-09 00:31:00,53.4,48.0,30.17,SE,132,0.0,5.0,82,0.00,,,0.00,meteohub,2013-10-09 05:31:00,
2013-10-09 00:37:00,53.2,47.8,30.17,SE,137,0.0,5.0,82,0.00,,,0.00,meteohub,2013-10-09 05:37:00,
2013-10-09 00:42:00,53.2,47.8,30.17,SE,137,0.0,4.0,82,0.00,,,0.00,meteohub,2013-10-09 05:42:00,
2013-10-09 00:47:00,53.1,47.7,30.17,SE,137,0.0,4.0,82,0.00,,,0.00,meteohub,2013-10-09 05:47:00,
2013-10-09 00:52:00,52.9,47.5,30.17,SE,141,0.0,3.0,82,0.00,,,0.00,meteohub,2013-10-09 05:52:00,
2013-10-09 00:57:00,52.5,47.1,30.17,SE,141,0.0,3.0,82,0.00,,,0.00,meteohub,2013-10-09 05:57:00,
2013-10-09 01:02:00,52.3,46.9,30.17,SE,141,0.0,2.0,82,0.00,,,0.00,meteohub,2013-10-09 06:02:00,
2013-10-09 01:07:00,52.0,46.9,30.17,SE,141,0.0,1.0,83,0.00,,,0.00,meteohub,2013-10-09 06:07:00,
2013-10-09 01:12:00,51.6,46.9,30.17,SE,141,0.0,0.0,84,0.00,,,0.00,meteohub,2013-10-09 06:12:00,
2013-10-09 01:17:00,51.3,46.6,30.17,SE,141,0.0,0.0,84,0.00,,,0.00,meteohub,2013-10-09 06:17:00,
2013-10-09 01:22:00,50.9,46.6,30.17,SE,141,0.0,0.0,85,0.00,,,0.00,meteohub,2013-10-09 06:22:00,
2013-10-09 01:27:00,50.7,46.8,30.17,SE,141,0.0,0.0,86,0.00,,,0.00,meteohub,2013-10-09 06:27:00,
2013-10-09 01:32:00,50.5,46.6,30.17,SE,141,0.0,0.0,86,0.00,,,0.00,meteohub,2013-10-09 06:32:00,
2013-10-09 01:37:00,50.4,46.6,30.17,SE,141,0.0,0.0,87,0.00,,,0.00,meteohub,2013-10-09 06:37:00,
2013-10-09 01:42:00,50.2,46.4,30.17,SE,141,0.0,0.0,87,0.00,,,0.00,meteohub,2013-10-09 06:42:00,
2013-10-09 01:47:00,49.8,46.0,30.17,SE,141,0.0,0.0,87,0.00,,,0.00,meteohub,2013-10-09 06:47:00,
2013-10-09 01:52:00,49.6,45.9,30.17,SE,141,0.0,0.0,87,0.00,,,0.00,meteohub,2013-10-09 06:52:00,
2013-10-09 01:57:00,49.3,45.5,30.17,SE,141,0.0,0.0,87,0.00,,,0.00,meteohub,2013-10-09 06:57:00,
2013-10-09 02:02:00,48.9,45.5,30.17,SE,141,0.0,0.0,88,0.00,,,0.00,meteohub,2013-10-09 07:02:00,
2013-10-09 02:07:00,48.6,45.1,30.17,SE,141,0.0,0.0,88,0.00,,,0.00,meteohub,2013-10-09 07:07:00,
2013-10-09 02:12:00,48.4,45.3,30.17,SE,141,0.0,0.0,89,0.00,,,0.00,meteohub,2013-10-09 07:12:00,
2013-10-09 02:17:00,48.2,45.3,30.17,SE,141,0.0,0.0,90,0.00,,,0.00,meteohub,2013-10-09 07:17:00,
2013-10-09 02:22:00,48.0,45.1,30.17,SE,141,0.0,0.0,90,0.00,,,0.00,meteohub,2013-10-09 07:22:00,
2013-10-09 02:27:00,47.8,45.0,30.17,SE,141,0.0,0.0,90,0.00,,,0.00,meteohub,2013-10-09 07:27:00,
2013-10-09 02:32:00,47.7,45.0,30.17,SE,141,0.0,0.0,90,0.00,,,0.00,meteohub,2013-10-09 07:32:00,
2013-10-09 02:37:00,47.7,45.0,30.17,SE,141,0.0,0.0,90,0.00,,,0.00,meteohub,2013-10-09 07:37:00,
2013-10-09 02:42:00,47.5,44.8,30.16,SE,141,0.0,0.0,90,0.00,,,0.00,meteohub,2013-10-09 07:42:00,
2013-10-09 02:47:00,47.3,44.8,30.16,SE,126,0.0,0.0,91,0.00,,,0.00,meteohub,2013-10-09 07:47:00,
2013-10-09 02:52:00,47.5,45.0,30.16,East,89,0.0,3.0,91,0.00,,,0.00,meteohub,2013-10-09 07:52:00,
2013-10-09 02:57:00,47.5,45.0,30.16,East,89,0.0,5.0,91,0.00,,,0.00,meteohub,2013-10-09 07:57:00,
2013-10-09 03:02:00,47.7,45.1,30.16,East,84,0.0,5.0,91,0.00,,,0.00,meteohub,2013-10-09 08:02:00,
2013-10-09 03:07:00,47.7,45.1,30.16,East,84,0.0,5.0,91,0.00,,,0.00,meteohub,2013-10-09 08:07:00,
2013-10-09 03:12:00,47.7,45.1,30.16,East,84,2.0,5.0,91,0.00,,,0.00,meteohub,2013-10-09 08:12:00,
2013-10-09 03:17:00,47.7,45.0,30.16,East,82,0.0,2.0,90,0.00,,,0.00,meteohub,2013-10-09 08:17:00,
2013-10-09 03:22:00,47.7,45.0,30.16,East,86,0.0,2.0,90,0.00,,,0.00,meteohub,2013-10-09 08:22:00,
2013-10-09 03:27:00,47.5,44.8,30.16,East,86,0.0,2.0,90,0.00,,,0.00,meteohub,2013-10-09 08:27:00,
2013-10-09 03:32:00,47.5,45.0,30.16,East,99,0.0,2.0,91,0.00,,,0.00,meteohub,2013-10-09 08:32:00,
2013-10-09 03:37:00,47.5,45.0,30.16,East,101,1.0,4.0,91,0.00,,,0.00,meteohub,2013-10-09 08:37:00,
2013-10-09 03:42:00,47.7,45.0,30.16,East,101,0.0,4.0,90,0.00,,,0.00,meteohub,2013-10-09 08:42:00,
2013-10-09 03:47:00,47.8,45.0,30.16,ESE,106,0.0,4.0,90,0.00,,,0.00,meteohub,2013-10-09 08:47:00,
2013-10-09 03:52:00,47.8,44.8,30.16,ESE,106,0.0,4.0,89,0.00,,,0.00,meteohub,2013-10-09 08:52:00,
2013-10-09 03:57:00,48.0,45.0,30.16,ESE,104,1.0,4.0,89,0.00,,,0.00,meteohub,2013-10-09 08:57:00,
2013-10-09 04:02:00,48.2,44.8,30.16,ESE,102,0.0,4.0,88,0.00,,,0.00,meteohub,2013-10-09 09:02:00,
2013-10-09 04:07:00,48.4,45.0,30.16,ESE,119,0.0,4.0,88,0.00,,,0.00,meteohub,2013-10-09 09:07:00,
2013-10-09 04:12:00,48.4,44.8,30.17,East,94,2.0,4.0,87,0.00,,,0.00,meteohub,2013-10-09 09:12:00,
2013-10-09 04:17:00,48.4,44.8,30.17,East,92,0.0,4.0,87,0.00,,,0.00,meteohub,2013-10-09 09:17:00,
2013-10-09 04:22:00,48.0,44.4,30.17,East,92,0.0,3.0,87,0.00,,,0.00,meteohub,2013-10-09 09:22:00,
2013-10-09 04:27:00,47.8,44.4,30.17,East,92,0.0,3.0,88,0.00,,,0.00,meteohub,2013-10-09 09:27:00,
2013-10-09 04:32:00,47.7,44.2,30.17,East,92,0.0,2.0,88,0.00,,,0.00,meteohub,2013-10-09 09:32:00,
2013-10-09 04:37:00,47.5,44.1,30.17,East,92,2.0,2.0,88,0.00,,,0.00,meteohub,2013-10-09 09:37:00,
2013-10-09 04:42:00,47.1,44.1,30.17,East,92,1.0,2.0,89,0.00,,,0.00,meteohub,2013-10-09 09:42:00,
2013-10-09 04:47:00,46.9,43.9,30.17,East,92,0.0,2.0,89,0.00,,,0.00,meteohub,2013-10-09 09:47:00,
2013-10-09 04:52:00,46.9,43.9,30.18,East,92,0.0,2.0,89,0.00,,,0.00,meteohub,2013-10-09 09:52:00,
2013-10-09 04:57:00,46.8,43.7,30.18,East,92,0.0,2.0,89,0.00,,,0.00,meteohub,2013-10-09 09:57:00,
2013-10-09 05:02:00,46.8,43.7,30.18,East,92,0.0,2.0,89,0.00,,,0.00,meteohub,2013-10-09 10:02:00,
2013-10-09 05:07:00,46.6,43.5,30.18,East,92,0.0,2.0,89,0.00,,,0.00,meteohub,2013-10-09 10:07:00,
2013-10-09 05:12:00,46.2,43.2,30.18,East,92,0.0,2.0,89,0.00,,,0.00,meteohub,2013-10-09 10:12:00,
2013-10-09 05:17:00,46.0,43.3,30.18,East,92,0.0,0.0,90,0.00,,,0.00,meteohub,2013-10-09 10:17:00,
2013-10-09 05:22:00,46.0,43.3,30.18,East,92,0.0,0.0,90,0.00,,,0.00,meteohub,2013-10-09 10:22:00,
2013-10-09 05:27:00,45.9,43.2,30.19,East,92,0.0,0.0,90,0.00,,,0.00,meteohub,2013-10-09 10:27:00,
2013-10-09 05:32:00,45.7,43.0,30.19,East,92,0.0,0.0,90,0.00,,,0.00,meteohub,2013-10-09 10:32:00,
2013-10-09 05:37:00,45.7,43.2,30.19,East,92,0.0,0.0,91,0.00,,,0.00,meteohub,2013-10-09 10:37:00,
2013-10-09 05:42:00,45.7,43.2,30.19,East,92,0.0,0.0,91,0.00,,,0.00,meteohub,2013-10-09 10:42:00,
2013-10-09 05:47:00,45.7,43.2,30.19,East,92,0.0,0.0,91,0.00,,,0.00,meteohub,2013-10-09 10:47:00,
2013-10-09 05:52:00,45.3,42.8,30.19,East,92,0.0,0.0,91,0.00,,,0.00,meteohub,2013-10-09 10:52:00,
2013-10-09 05:57:00,45.1,42.6,30.19,East,92,0.0,0.0,91,0.00,,,0.00,meteohub,2013-10-09 10:57:00,
2013-10-09 06:02:00,45.1,42.6,30.19,East,92,0.0,0.0,91,0.00,,,0.00,meteohub,2013-10-09 11:02:00,
2013-10-09 06:07:00,45.1,43.0,30.19,East,92,0.0,0.0,92,0.00,,,0.00,meteohub,2013-10-09 11:07:00,
2013-10-09 06:12:00,45.0,42.4,30.19,East,92,0.0,0.0,91,0.00,,,0.00,meteohub,2013-10-09 11:12:00,
2013-10-09 06:17:00,45.0,42.4,30.19,East,92,0.0,0.0,91,0.00,,,0.00,meteohub,2013-10-09 11:17:00,
2013-10-09 06:22:00,45.0,42.8,30.19,East,92,0.0,0.0,92,0.00,,,0.00,meteohub,2013-10-09 11:22:00,
2013-10-09 06:27:00,45.0,42.8,30.19,East,92,0.0,0.0,92,0.00,,,0.00,meteohub,2013-10-09 11:27:00,
2013-10-09 06:32:00,45.0,42.8,30.19,East,92,0.0,0.0,92,0.00,,,0.00,meteohub,2013-10-09 11:32:00,
2013-10-09 06:37:00,45.0,42.8,30.20,East,92,0.0,1.0,92,0.00,,,0.00,meteohub,2013-10-09 11:37:00,
2013-10-09 06:42:00,45.1,43.0,30.20,East,92,1.0,2.0,92,0.00,,,0.00,meteohub,2013-10-09 11:42:00,
2013-10-09 06:47:00,45.3,43.2,30.20,East,92,1.0,2.0,92,0.00,,,0.00,meteohub,2013-10-09 11:47:00,
2013-10-09 06:52:00,45.3,43.2,30.20,East,92,0.0,2.0,92,0.00,,,0.00,meteohub,2013-10-09 11:52:00,
2013-10-09 06:57:00,45.3,42.8,30.20,East,92,0.0,2.0,91,0.00,,,0.00,meteohub,2013-10-09 11:57:00,
2013-10-09 07:02:00,45.3,42.8,30.20,East,92,0.0,2.0,91,0.00,,,0.00,meteohub,2013-10-09 12:02:00,
2013-10-09 07:06:00,45.1,42.6,30.20,East,92,0.0,0.0,91,0.00,,,0.00,meteohub,2013-10-09 12:06:00,
2013-10-09 07:11:00,45.1,42.6,30.21,East,92,0.0,0.0,91,0.00,,,0.00,meteohub,2013-10-09 12:11:00,
2013-10-09 07:16:00,45.1,43.0,30.21,East,92,0.0,1.0,92,0.00,,,0.00,meteohub,2013-10-09 12:16:00,
2013-10-09 07:21:00,45.3,43.2,30.21,East,92,0.0,1.0,92,0.00,,,0.00,meteohub,2013-10-09 12:21:00,
2013-10-09 07:26:00,45.7,43.5,30.21,East,92,0.0,2.0,92,0.00,,,0.00,meteohub,2013-10-09 12:26:00,
2013-10-09 07:32:00,46.0,43.9,30.21,East,84,0.0,2.0,92,0.00,,,0.00,meteohub,2013-10-09 12:32:00,
2013-10-09 07:37:00,46.4,44.2,30.21,ENE,70,0.0,2.0,92,0.00,,,0.00,meteohub,2013-10-09 12:37:00,
2013-10-09 07:42:00,46.9,44.4,30.21,ENE,70,2.0,3.0,91,0.00,,,0.00,meteohub,2013-10-09 12:42:00,
2013-10-09 07:47:00,47.5,44.8,30.21,ENE,57,2.0,3.0,90,0.00,,,0.00,meteohub,2013-10-09 12:47:00,
2013-10-09 07:52:00,48.0,45.0,30.21,NE,51,0.0,4.0,89,0.00,,,0.00,meteohub,2013-10-09 12:52:00,
2013-10-09 07:57:00,48.6,44.8,30.21,NE,53,0.0,5.0,87,0.00,,,0.00,meteohub,2013-10-09 12:57:00,
2013-10-09 08:02:00,49.3,45.5,30.21,East,88,0.0,5.0,87,0.00,,,0.00,meteohub,2013-10-09 13:02:00,
2013-10-09 08:07:00,49.8,45.5,30.21,ENE,61,2.0,5.0,85,0.00,,,0.00,meteohub,2013-10-09 13:07:00,
2013-10-09 08:12:00,50.5,45.5,30.21,East,91,1.0,5.0,83,0.00,,,0.00,meteohub,2013-10-09 13:12:00,
2013-10-09 08:17:00,51.1,46.0,30.22,ENE,78,4.0,6.0,83,0.00,,,0.00,meteohub,2013-10-09 13:17:00,
2013-10-09 08:22:00,51.4,46.2,30.22,ENE,74,2.0,6.0,82,0.00,,,0.00,meteohub,2013-10-09 13:22:00,
2013-10-09 08:27:00,52.0,46.4,30.22,ESE,111,4.0,6.0,81,0.00,,,0.00,meteohub,2013-10-09 13:27:00,
2013-10-09 08:32:00,52.2,46.6,30.22,NE,36,2.0,6.0,81,0.00,,,0.00,meteohub,2013-10-09 13:32:00,
2013-10-09 08:37:00,52.5,46.9,30.22,East,93,4.0,6.0,81,0.00,,,0.00,meteohub,2013-10-09 13:37:00,
2013-10-09 08:42:00,52.9,47.3,30.22,ENE,67,0.0,6.0,81,0.00,,,0.00,meteohub,2013-10-09 13:42:00,
2013-10-09 08:47:00,53.2,47.3,30.22,East,90,4.0,6.0,80,0.00,,,0.00,meteohub,2013-10-09 13:47:00,
2013-10-09 08:52:00,53.4,47.5,30.22,East,80,0.0,6.0,80,0.00,,,0.00,meteohub,2013-10-09 13:52:00,
2013-10-09 08:57:00,54.1,48.0,30.22,East,96,1.0,6.0,80,0.00,,,0.00,meteohub,2013-10-09 13:57:00,
2013-10-09 09:02:00,54.9,48.7,30.22,ENE,69,0.0,6.0,80,0.00,,,0.00,meteohub,2013-10-09 14:02:00,
2013-10-09 09:07:00,55.2,48.6,30.22,ENE,63,1.0,6.0,78,0.00,,,0.00,meteohub,2013-10-09 14:07:00,
2013-10-09 09:12:00,55.8,48.7,30.22,East,99,3.0,6.0,77,0.00,,,0.00,meteohub,2013-10-09 14:12:00,
2013-10-09 09:17:00,56.3,48.9,30.22,ENE,77,3.0,6.0,76,0.00,,,0.00,meteohub,2013-10-09 14:17:00,
2013-10-09 09:22:00,57.0,48.7,30.22,ESE,111,0.0,6.0,74,0.00,,,0.00,meteohub,2013-10-09 14:22:00,
2013-10-09 09:27:00,57.7,49.5,30.22,SE,130,3.0,6.0,74,0.00,,,0.00,meteohub,2013-10-09 14:27:00,
2013-10-09 09:32:00,58.3,49.3,30.22,East,80,1.0,6.0,72,0.00,,,0.00,meteohub,2013-10-09 14:32:00,
2013-10-09 09:37:00,58.8,49.1,30.22,SSE,165,4.0,6.0,70,0.00,,,0.00,meteohub,2013-10-09 14:37:00,
2013-10-09 09:42:00,59.2,49.8,30.22,ENE,72,1.0,6.0,71,0.00,,,0.00,meteohub,2013-10-09 14:42:00,
2013-10-09 09:47:00,59.7,50.0,30.22,SSE,163,0.0,5.0,70,0.00,,,0.00,meteohub,2013-10-09 14:47:00,
2013-10-09 09:52:00,60.3,50.0,30.22,ENE,57,3.0,5.0,69,0.00,,,0.00,meteohub,2013-10-09 14:52:00,
2013-10-09 09:57:00,60.8,49.8,30.22,ESE,103,0.0,4.0,67,0.00,,,0.00,meteohub,2013-10-09 14:57:00,
2013-10-09 10:02:00,61.3,49.5,30.22,SE,130,0.0,4.0,65,0.00,,,0.00,meteohub,2013-10-09 15:02:00,
2013-10-09 10:07:00,61.9,49.6,30.21,NE,55,2.0,5.0,64,0.00,,,0.00,meteohub,2013-10-09 15:07:00,
2013-10-09 10:13:00,62.4,49.6,30.21,East,80,0.0,5.0,63,0.00,,,0.00,meteohub,2013-10-09 15:13:00,
2013-10-09 10:18:00,63.0,48.9,30.21,SE,144,0.0,5.0,60,0.00,,,0.00,meteohub,2013-10-09 15:18:00,
2013-10-09 10:23:00,63.1,50.4,30.21,SE,128,1.0,5.0,63,0.00,,,0.00,meteohub,2013-10-09 15:23:00,
2013-10-09 10:29:00,63.5,49.8,30.21,SSE,152,2.0,5.0,61,0.00,,,0.00,meteohub,2013-10-09 15:29:00,
2013-10-09 10:34:00,63.7,50.0,30.21,South,170,4.0,6.0,61,0.00,,,0.00,meteohub,2013-10-09 15:34:00,
2013-10-09 10:39:00,64.0,49.8,30.21,ENE,63,0.0,6.0,60,0.00,,,0.00,meteohub,2013-10-09 15:39:00,
2013-10-09 10:44:00,64.4,49.8,30.21,ESE,107,0.0,6.0,59,0.00,,,0.00,meteohub,2013-10-09 15:44:00,
2013-10-09 10:49:00,64.9,49.8,30.21,SSE,147,0.0,6.0,58,0.00,,,0.00,meteohub,2013-10-09 15:49:00,
2013-10-09 10:55:00,65.3,49.6,30.21,SE,143,5.0,6.0,57,0.00,,,0.00,meteohub,2013-10-09 15:55:00,
2013-10-09 11:00:00,65.7,49.5,30.21,ENE,57,1.0,5.0,56,0.00,,,0.00,meteohub,2013-10-09 16:00:00,
2013-10-09 11:05:00,66.0,49.8,30.21,ESE,110,1.0,5.0,56,0.00,,,0.00,meteohub,2013-10-09 16:05:00,
2013-10-09 11:10:00,66.6,49.8,30.21,ENE,77,4.0,5.0,55,0.00,,,0.00,meteohub,2013-10-09 16:10:00,
2013-10-09 11:16:00,66.9,49.8,30.20,South,176,0.0,5.0,54,0.00,,,0.00,meteohub,2013-10-09 16:16:00,
2013-10-09 11:21:00,67.5,48.7,30.20,South,176,1.0,4.0,51,0.00,,,0.00,meteohub,2013-10-09 16:21:00,
2013-10-09 11:26:00,67.6,49.5,30.20,NE,49,1.0,5.0,52,0.00,,,0.00,meteohub,2013-10-09 16:26:00,
2013-10-09 11:31:00,67.8,48.6,30.20,SSE,157,2.0,6.0,50,0.00,,,0.00,meteohub,2013-10-09 16:31:00,
2013-10-09 11:36:00,68.4,47.8,30.20,ENE,60,1.0,6.0,48,0.00,,,0.00,meteohub,2013-10-09 16:36:00,
2013-10-09 11:41:00,68.7,47.7,30.20,ENE,77,2.0,8.0,47,0.00,,,0.00,meteohub,2013-10-09 16:41:00,
2013-10-09 11:47:00,68.9,47.3,30.20,SE,124,1.0,8.0,46,0.00,,,0.00,meteohub,2013-10-09 16:47:00,
2013-10-09 11:52:00,69.1,46.8,30.20,SSE,150,2.0,8.0,45,0.00,,,0.00,meteohub,2013-10-09 16:52:00,
2013-10-09 11:57:00,69.1,47.5,30.19,South,188,4.0,7.0,46,0.00,,,0.00,meteohub,2013-10-09 16:57:00,
2013-10-09 12:02:00,68.9,46.8,30.19,NE,47,2.0,8.0,45,0.00,,,0.00,meteohub,2013-10-09 17:02:00,
2013-10-09 12:07:00,69.1,46.2,30.19,ESE,120,5.0,10.0,44,0.00,,,0.00,meteohub,2013-10-09 17:07:00,
2013-10-09 12:12:00,69.3,46.4,30.19,East,99,6.0,10.0,44,0.00,,,0.00,meteohub,2013-10-09 17:12:00,
2013-10-09 12:17:00,69.4,46.6,30.19,NE,53,4.0,10.0,44,0.00,,,0.00,meteohub,2013-10-09 17:17:00,
2013-10-09 12:22:00,70.0,47.7,30.19,NE,53,3.0,8.0,45,0.00,,,0.00,meteohub,2013-10-09 17:22:00,
2013-10-09 12:27:00,70.0,47.7,30.19,ESE,117,2.0,8.0,45,0.00,,,0.00,meteohub,2013-10-09 17:27:00,
2013-10-09 12:32:00,70.5,47.5,30.18,SE,143,2.0,9.0,44,0.00,,,0.00,meteohub,2013-10-09 17:32:00,
2013-10-09 12:37:00,70.3,48.0,30.18,SE,146,6.0,9.0,45,0.00,,,0.00,meteohub,2013-10-09 17:37:00,
2013-10-09 12:42:00,70.5,47.5,30.18,ESE,123,2.0,9.0,44,0.00,,,0.00,meteohub,2013-10-09 17:42:00,
2013-10-09 12:47:00,70.3,47.5,30.18,NE,43,6.0,9.0,44,0.00,,,0.00,meteohub,2013-10-09 17:47:00,
2013-10-09 12:52:00,70.2,48.4,30.17,SE,133,1.0,10.0,46,0.00,,,0.00,meteohub,2013-10-09 17:52:00,
2013-10-09 12:57:00,70.9,47.3,30.17,SSE,153,0.0,10.0,43,0.00,,,0.00,meteohub,2013-10-09 17:57:00,
2013-10-09 13:02:00,71.4,47.1,30.17,East,89,1.0,10.0,42,0.00,,,0.00,meteohub,2013-10-09 18:02:00,
2013-10-09 13:07:00,71.8,48.0,30.17,NE,46,3.0,8.0,43,0.00,,,0.00,meteohub,2013-10-09 18:07:00,
2013-10-09 13:12:00,72.0,47.7,30.17,SE,144,4.0,7.0,42,0.00,,,0.00,meteohub,2013-10-09 18:12:00,
2013-10-09 13:17:00,72.0,47.7,30.16,NNE,20,7.0,9.0,42,0.00,,,0.00,meteohub,2013-10-09 18:17:00,
2013-10-09 13:22:00,72.1,47.8,30.16,SSE,158,5.0,9.0,42,0.00,,,0.00,meteohub,2013-10-09 18:22:00,
2013-10-09 13:27:00,72.1,47.8,30.16,South,171,0.0,9.0,42,0.00,,,0.00,meteohub,2013-10-09 18:27:00,
2013-10-09 13:32:00,72.7,48.2,30.16,East,92,5.0,9.0,42,0.00,,,0.00,meteohub,2013-10-09 18:32:00,
2013-10-09 13:37:00,72.9,49.1,30.15,SSE,159,5.0,9.0,43,0.00,,,0.00,meteohub,2013-10-09 18:37:00,
2013-10-09 13:42:00,72.9,47.8,30.15,East,98,0.0,9.0,41,0.00,,,0.00,meteohub,2013-10-09 18:42:00,
2013-10-09 13:47:00,73.0,48.0,30.15,East,82,1.0,9.0,41,0.00,,,0.00,meteohub,2013-10-09 18:47:00,
2013-10-09 13:52:00,73.6,47.1,30.15,South,177,0.0,9.0,39,0.00,,,0.00,meteohub,2013-10-09 18:52:00,
2013-10-09 13:57:00,74.1,48.9,30.14,East,88,0.0,6.0,41,0.00,,,0.00,meteohub,2013-10-09 18:57:00,
2013-10-09 14:02:00,73.9,46.8,30.14,South,172,2.0,9.0,38,0.00,,,0.00,meteohub,2013-10-09 19:02:00,
2013-10-09 14:07:00,73.9,46.8,30.14,SSE,163,3.0,9.0,38,0.00,,,0.00,meteohub,2013-10-09 19:07:00,
2013-10-09 14:12:00,73.8,47.3,30.14,SW,229,0.0,9.0,39,0.00,,,0.00,meteohub,2013-10-09 19:12:00,
2013-10-09 14:17:00,73.9,46.8,30.14,East,82,0.0,9.0,38,0.00,,,0.00,meteohub,2013-10-09 19:17:00,
2013-10-09 14:22:00,74.5,47.1,30.14,ESE,122,0.0,8.0,38,0.00,,,0.00,meteohub,2013-10-09 19:22:00,
2013-10-09 14:27:00,74.5,47.1,30.14,ENE,57,2.0,8.0,38,0.00,,,0.00,meteohub,2013-10-09 19:27:00,
2013-10-09 14:32:00,74.7,48.0,30.14,SE,145,4.0,8.0,39,0.00,,,0.00,meteohub,2013-10-09 19:32:00,
2013-10-09 14:37:00,74.7,46.6,30.14,SE,146,6.0,7.0,37,0.00,,,0.00,meteohub,2013-10-09 19:37:00,
2013-10-09 14:42:00,74.1,46.9,30.14,SE,145,5.0,8.0,38,0.00,,,0.00,meteohub,2013-10-09 19:42:00,
2013-10-09 14:47:00,73.9,46.8,30.14,South,188,2.0,8.0,38,0.00,,,0.00,meteohub,2013-10-09 19:47:00,
2013-10-09 14:52:00,74.1,46.2,30.14,ESE,123,2.0,10.0,37,0.00,,,0.00,meteohub,2013-10-09 19:52:00,
2013-10-09 14:57:00,74.5,46.6,30.13,SSE,158,0.0,10.0,37,0.00,,,0.00,meteohub,2013-10-09 19:57:00,
2013-10-09 15:02:00,74.7,47.3,30.13,South,175,1.0,10.0,38,0.00,,,0.00,meteohub,2013-10-09 20:02:00,
2013-10-09 15:07:00,74.7,46.6,30.13,SSE,163,2.0,8.0,37,0.00,,,0.00,meteohub,2013-10-09 20:07:00,
2013-10-09 15:12:00,75.0,46.9,30.13,South,176,2.0,7.0,37,0.00,,,0.00,meteohub,2013-10-09 20:12:00,
2013-10-09 15:17:00,74.8,46.0,30.13,SSE,165,1.0,9.0,36,0.00,,,0.00,meteohub,2013-10-09 20:17:00,
2013-10-09 15:22:00,74.8,46.0,30.13,SSE,153,2.0,9.0,36,0.00,,,0.00,meteohub,2013-10-09 20:22:00,
2013-10-09 15:27:00,75.0,46.9,30.13,SE,131,1.0,9.0,37,0.00,,,0.00,meteohub,2013-10-09 20:27:00,
2013-10-09 15:32:00,75.0,46.2,30.13,SE,132,0.0,7.0,36,0.00,,,0.00,meteohub,2013-10-09 20:32:00,
2013-10-09 15:37:00,74.7,45.9,30.13,South,190,2.0,8.0,36,0.00,,,0.00,meteohub,2013-10-09 20:37:00,
2013-10-09 15:42:00,74.8,46.0,30.13,SE,133,4.0,8.0,36,0.00,,,0.00,meteohub,2013-10-09 20:42:00,
2013-10-09 15:47:00,75.0,46.9,30.12,East,94,5.0,8.0,37,0.00,,,0.00,meteohub,2013-10-09 20:47:00,
2013-10-09 15:52:00,74.8,46.0,30.12,ESE,102,0.0,6.0,36,0.00,,,0.00,meteohub,2013-10-09 20:52:00,
2013-10-09 15:57:00,75.0,46.2,30.12,South,189,1.0,6.0,36,0.00,,,0.00,meteohub,2013-10-09 20:57:00,
2013-10-09 16:02:00,75.0,46.9,30.12,South,191,4.0,6.0,37,0.00,,,0.00,meteohub,2013-10-09 21:02:00,
2013-10-09 16:07:00,74.8,46.8,30.12,SSE,168,1.0,7.0,37,0.00,,,0.00,meteohub,2013-10-09 21:07:00,
2013-10-09 16:12:00,74.8,47.5,30.12,South,182,6.0,7.0,38,0.00,,,0.00,meteohub,2013-10-09 21:12:00,
2013-10-09 16:17:00,74.8,47.5,30.12,ESE,109,1.0,7.0,38,0.00,,,0.00,meteohub,2013-10-09 21:17:00,
2013-10-09 16:22:00,74.5,47.1,30.12,East,87,4.0,7.0,38,0.00,,,0.00,meteohub,2013-10-09 21:22:00,
2013-10-09 16:27:00,74.1,46.9,30.12,ESE,117,5.0,6.0,38,0.00,,,0.00,meteohub,2013-10-09 21:27:00,
2013-10-09 16:32:00,74.1,46.9,30.12,SSE,159,0.0,8.0,38,0.00,,,0.00,meteohub,2013-10-09 21:32:00,
2013-10-09 16:37:00,74.3,47.7,30.12,SE,127,4.0,8.0,39,0.00,,,0.00,meteohub,2013-10-09 21:37:00,
2013-10-09 16:42:00,74.5,47.8,30.12,SSE,166,0.0,8.0,39,0.00,,,0.00,meteohub,2013-10-09 21:42:00,
2013-10-09 16:47:00,74.3,47.7,30.12,SSE,153,2.0,6.0,39,0.00,,,0.00,meteohub,2013-10-09 21:47:00,
2013-10-09 16:52:00,74.1,48.2,30.12,SE,143,0.0,7.0,40,0.00,,,0.00,meteohub,2013-10-09 21:52:00,
2013-10-09 16:57:00,73.9,48.0,30.12,SSE,160,1.0,7.0,40,0.00,,,0.00,meteohub,2013-10-09 21:57:00,
2013-10-09 17:02:00,73.9,48.0,30.12,South,171,3.0,6.0,40,0.00,,,0.00,meteohub,2013-10-09 22:02:00,
2013-10-09 17:07:00,73.8,47.3,30.12,SSE,163,0.0,8.0,39,0.00,,,0.00,meteohub,2013-10-09 22:07:00,
2013-10-09 17:12:00,73.6,47.8,30.12,SSE,148,1.0,8.0,40,0.00,,,0.00,meteohub,2013-10-09 22:12:00,
2013-10-09 17:17:00,73.6,48.4,30.12,SSE,164,1.0,8.0,41,0.00,,,0.00,meteohub,2013-10-09 22:17:00,
2013-10-09 17:22:00,73.2,48.0,30.12,SSE,150,2.0,5.0,41,0.00,,,0.00,meteohub,2013-10-09 22:22:00,
2013-10-09 17:27:00,73.0,47.3,30.12,SSE,156,0.0,5.0,40,0.00,,,0.00,meteohub,2013-10-09 22:27:00,
2013-10-09 17:32:00,73.0,48.0,30.12,SSE,158,1.0,5.0,41,0.00,,,0.00,meteohub,2013-10-09 22:32:00,
2013-10-09 17:37:00,72.7,48.2,30.12,SSE,153,0.0,5.0,42,0.00,,,0.00,meteohub,2013-10-09 22:37:00,
2013-10-09 17:42:00,72.1,47.8,30.12,SSE,155,0.0,5.0,42,0.00,,,0.00,meteohub,2013-10-09 22:42:00,
2013-10-09 17:47:00,71.8,48.0,30.12,SSE,150,0.0,5.0,43,0.00,,,0.00,meteohub,2013-10-09 22:47:00,
2013-10-09 17:52:00,71.4,48.4,30.12,SSE,150,0.0,4.0,44,0.00,,,0.00,meteohub,2013-10-09 22:52:00,
2013-10-09 17:57:00,71.1,48.6,30.12,SSE,150,0.0,4.0,45,0.00,,,0.00,meteohub,2013-10-09 22:57:00,
2013-10-09 18:02:00,70.5,49.3,30.12,SSE,150,0.0,2.0,47,0.00,,,0.00,meteohub,2013-10-09 23:02:00,
2013-10-09 18:07:00,70.2,50.2,30.12,SSE,150,0.0,2.0,49,0.00,,,0.00,meteohub,2013-10-09 23:07:00,
2013-10-09 18:12:00,69.4,50.5,30.12,SSE,150,0.0,0.0,51,0.00,,,0.00,meteohub,2013-10-09 23:12:00,
2013-10-09 18:17:00,68.5,51.3,30.12,SSE,150,0.0,0.0,54,0.00,,,0.00,meteohub,2013-10-09 23:17:00,
2013-10-09 18:22:00,67.8,50.5,30.12,SSE,150,0.0,0.0,54,0.00,,,0.00,meteohub,2013-10-09 23:22:00,
2013-10-09 18:27:00,66.9,51.3,30.12,SSE,150,0.0,0.0,57,0.00,,,0.00,meteohub,2013-10-09 23:27:00,
2013-10-09 18:32:00,66.4,50.2,30.12,SSE,150,0.0,0.0,56,0.00,,,0.00,meteohub,2013-10-09 23:32:00,
2013-10-09 18:37:00,65.7,50.5,30.12,SSE,150,0.0,0.0,58,0.00,,,0.00,meteohub,2013-10-09 23:37:00,
2013-10-09 18:42:00,64.9,50.2,30.12,SSE,150,0.0,0.0,59,0.00,,,0.00,meteohub,2013-10-09 23:42:00,
2013-10-09 18:47:00,64.6,50.0,30.12,SSE,150,0.0,0.0,59,0.00,,,0.00,meteohub,2013-10-09 23:47:00,
2013-10-09 18:52:00,64.0,50.4,30.12,SSE,150,0.0,0.0,61,0.00,,,0.00,meteohub,2013-10-09 23:52:00,
2013-10-09 18:57:00,63.7,50.9,30.12,SSE,150,0.0,0.0,63,0.00,,,0.00,meteohub,2013-10-09 23:57:00,
2013-10-09 19:02:00,63.1,50.7,30.12,SSE,150,0.0,0.0,64,0.00,,,0.00,meteohub,2013-10-10 00:02:00,
2013-10-09 19:07:00,62.8,51.3,30.12,SSE,150,0.0,0.0,66,0.00,,,0.00,meteohub,2013-10-10 00:07:00,
2013-10-09 19:12:00,62.2,50.7,30.12,SSE,150,0.0,0.0,66,0.00,,,0.00,meteohub,2013-10-10 00:12:00,
2013-10-09 19:17:00,62.1,50.2,30.12,SSE,150,0.0,0.0,65,0.00,,,0.00,meteohub,2013-10-10 00:17:00,
2013-10-09 19:22:00,61.5,50.0,30.12,SSE,150,0.0,0.0,66,0.00,,,0.00,meteohub,2013-10-10 00:22:00,
2013-10-09 19:27:00,61.3,50.4,30.12,SSE,150,0.0,0.0,67,0.00,,,0.00,meteohub,2013-10-10 00:27:00,
2013-10-09 19:32:00,61.2,51.3,30.12,SSE,150,0.0,0.0,70,0.00,,,0.00,meteohub,2013-10-10 00:32:00,
2013-10-09 19:37:00,60.6,51.1,30.12,SSE,150,0.0,0.0,71,0.00,,,0.00,meteohub,2013-10-10 00:37:00,
2013-10-09 19:42:00,60.3,51.3,30.12,SSE,150,0.0,0.0,72,0.00,,,0.00,meteohub,2013-10-10 00:42:00,
2013-10-09 19:47:00,59.9,50.9,30.12,SSE,150,0.0,0.0,72,0.00,,,0.00,meteohub,2013-10-10 00:47:00,
2013-10-09 19:52:00,59.5,51.3,30.12,SSE,150,0.0,0.0,74,0.00,,,0.00,meteohub,2013-10-10 00:52:00,
2013-10-09 19:57:00,59.2,51.3,30.13,SSE,150,0.0,0.0,75,0.00,,,0.00,meteohub,2013-10-10 00:57:00,
2013-10-09 20:02:00,58.8,51.3,30.13,SSE,150,0.0,0.0,76,0.00,,,0.00,meteohub,2013-10-10 01:02:00,
2013-10-09 20:07:00,58.6,51.1,30.13,SSE,150,0.0,0.0,76,0.00,,,0.00,meteohub,2013-10-10 01:07:00,
2013-10-09 20:12:00,58.3,50.7,30.13,SSE,150,0.0,0.0,76,0.00,,,0.00,meteohub,2013-10-10 01:12:00,
2013-10-09 20:17:00,57.9,51.1,30.13,SSE,150,0.0,0.0,78,0.00,,,0.00,meteohub,2013-10-10 01:17:00,
2013-10-09 20:22:00,57.7,51.3,30.12,SSE,150,0.0,0.0,79,0.00,,,0.00,meteohub,2013-10-10 01:22:00,
2013-10-09 20:27:00,57.4,50.9,30.13,SSE,150,0.0,0.0,79,0.00,,,0.00,meteohub,2013-10-10 01:27:00,
2013-10-09 20:32:00,57.0,50.9,30.12,SSE,150,0.0,0.0,80,0.00,,,0.00,meteohub,2013-10-10 01:32:00,
2013-10-09 20:37:00,56.8,50.7,30.12,SSE,150,0.0,0.0,80,0.00,,,0.00,meteohub,2013-10-10 01:37:00,
2013-10-09 20:42:00,56.5,50.4,30.12,SSE,150,0.0,0.0,80,0.00,,,0.00,meteohub,2013-10-10 01:42:00,
2013-10-09 20:47:00,56.1,50.0,30.12,SSE,150,0.0,0.0,80,0.00,,,0.00,meteohub,2013-10-10 01:47:00,
2013-10-09 20:52:00,55.9,49.8,30.12,SSE,150,0.0,0.0,80,0.00,,,0.00,meteohub,2013-10-10 01:52:00,
2013-10-09 20:58:00,55.6,49.5,30.13,SSE,150,0.0,0.0,80,0.00,,,0.00,meteohub,2013-10-10 01:58:00,
2013-10-09 21:03:00,55.2,49.5,30.13,SSE,150,0.0,0.0,81,0.00,,,0.00,meteohub,2013-10-10 02:03:00,
2013-10-09 21:08:00,55.0,49.3,30.13,SSE,150,0.0,0.0,81,0.00,,,0.00,meteohub,2013-10-10 02:08:00,
2013-10-09 21:13:00,54.9,49.1,30.13,SSE,150,0.0,0.0,81,0.00,,,0.00,meteohub,2013-10-10 02:13:00,
2013-10-09 21:18:00,54.7,49.3,30.13,SSE,150,0.0,0.0,82,0.00,,,0.00,meteohub,2013-10-10 02:18:00,
2013-10-09 21:23:00,54.7,49.6,30.13,SSE,150,0.0,0.0,83,0.00,,,0.00,meteohub,2013-10-10 02:23:00,
2013-10-09 21:28:00,54.7,50.0,30.13,SSE,150,0.0,0.0,84,0.00,,,0.00,meteohub,2013-10-10 02:28:00,
2013-10-09 21:33:00,54.5,49.8,30.13,SSE,150,0.0,0.0,84,0.00,,,0.00,meteohub,2013-10-10 02:33:00,
2013-10-09 21:38:00,54.3,49.6,30.13,SSE,150,0.0,0.0,84,0.00,,,0.00,meteohub,2013-10-10 02:38:00,
2013-10-09 21:43:00,54.3,49.6,30.13,SSE,150,0.0,0.0,84,0.00,,,0.00,meteohub,2013-10-10 02:43:00,
2013-10-09 21:48:00,54.3,49.8,30.13,SSE,150,0.0,0.0,85,0.00,,,0.00,meteohub,2013-10-10 02:48:00,
2013-10-09 21:53:00,54.1,49.8,30.13,SSE,150,0.0,0.0,85,0.00,,,0.00,meteohub,2013-10-10 02:53:00,
2013-10-09 21:58:00,54.0,49.6,30.14,SSE,150,0.0,0.0,85,0.00,,,0.00,meteohub,2013-10-10 02:58:00,
2013-10-09 22:03:00,53.8,49.6,30.13,SSE,150,0.0,0.0,86,0.00,,,0.00,meteohub,2013-10-10 03:03:00,
2013-10-09 22:08:00,53.6,49.5,30.13,SSE,150,0.0,0.0,86,0.00,,,0.00,meteohub,2013-10-10 03:08:00,
2013-10-09 22:13:00,53.2,49.1,30.13,SSE,150,0.0,0.0,86,0.00,,,0.00,meteohub,2013-10-10 03:13:00,
2013-10-09 22:19:00,53.2,49.5,30.13,SSE,150,0.0,0.0,87,0.00,,,0.00,meteohub,2013-10-10 03:19:00,
2013-10-09 22:24:00,53.1,49.3,30.13,SSE,150,0.0,0.0,87,0.00,,,0.00,meteohub,2013-10-10 03:24:00,
2013-10-09 22:29:00,53.1,49.3,30.13,SSE,150,0.0,0.0,87,0.00,,,0.00,meteohub,2013-10-10 03:29:00,
2013-10-09 22:34:00,52.9,49.1,30.13,SSE,150,0.0,0.0,87,0.00,,,0.00,meteohub,2013-10-10 03:34:00,
2013-10-09 22:39:00,52.5,48.7,30.13,SSE,150,0.0,0.0,87,0.00,,,0.00,meteohub,2013-10-10 03:39:00,
2013-10-09 22:44:00,52.5,49.1,30.13,SSE,150,0.0,0.0,88,0.00,,,0.00,meteohub,2013-10-10 03:44:00,
2013-10-09 22:49:00,52.3,49.3,30.13,SSE,150,0.0,0.0,89,0.00,,,0.00,meteohub,2013-10-10 03:49:00,
2013-10-09 22:54:00,52.3,48.9,30.13,SSE,150,0.0,0.0,88,0.00,,,0.00,meteohub,2013-10-10 03:54:00,
2013-10-09 22:59:00,52.3,49.3,30.13,SSE,150,0.0,0.0,89,0.00,,,0.00,meteohub,2013-10-10 03:59:00,
2013-10-09 23:01:00,52.2,49.1,30.13,SSE,150,0.0,0.0,89,0.00,,,0.00,meteohub,2013-10-10 04:01:00,
2013-10-09 23:02:00,52.2,49.1,30.13,SSE,150,0.0,0.0,89,0.00,,,0.00,meteohub,2013-10-10 04:02:00,
2013-10-09 23:03:00,52.2,48.7,30.13,SSE,150,0.0,0.0,88,0.00,,,0.00,meteohub,2013-10-10 04:03:00,
2013-10-09 23:04:00,52.0,48.6,30.13,SSE,150,0.0,0.0,88,0.00,,,0.00,meteohub,2013-10-10 04:04:00,
2013-10-09 23:09:00,51.6,48.2,30.13,SSE,150,0.0,0.0,88,0.00,,,0.00,meteohub,2013-10-10 04:09:00,
2013-10-09 23:14:00,51.4,48.4,30.13,SSE,150,0.0,0.0,89,0.00,,,0.00,meteohub,2013-10-10 04:14:00,
2013-10-09 23:19:00,51.4,48.6,30.12,SSE,150,0.0,0.0,90,0.00,,,0.00,meteohub,2013-10-10 04:19:00,
2013-10-09 23:24:00,51.4,48.6,30.12,SSE,150,0.0,0.0,90,0.00,,,0.00,meteohub,2013-10-10 04:24:00,
2013-10-09 23:29:00,51.4,48.6,30.12,SSE,150,0.0,0.0,90,0.00,,,0.00,meteohub,2013-10-10 04:29:00,
2013-10-09 23:34:00,51.4,48.9,30.12,SSE,150,0.0,0.0,91,0.00,,,0.00,meteohub,2013-10-10 04:34:00,
2013-10-09 23:39:00,51.3,48.7,30.12,SSE,150,0.0,0.0,91,0.00,,,0.00,meteohub,2013-10-10 04:39:00,
2013-10-09 23:44:00,51.3,48.7,30.12,SSE,150,0.0,0.0,91,0.00,,,0.00,meteohub,2013-10-10 04:44:00,
2013-10-09 23:49:00,51.3,48.7,30.12,SSE,150,0.0,0.0,91,0.00,,,0.00,meteohub,2013-10-10 04:49:00,
2013-10-09 23:54:00,51.1,48.6,30.12,SSE,150,0.0,0.0,91,0.00,,,0.00,meteohub,2013-10-10 04:54:00,
2013-10-09 23:59:00,51.1,48.6,30.12,SSE,150,0.0,0.0,91,0.00,,,0.00,meteohub,2013-10-10 04:59:00,